Temperature
-3 -3 -3 -3 -2 -2 -2 -2 -2 -2 -2 -2 -2 -2 -2 -1 -1 -1 -1 -1 -1 -1 -1 -1 -1 -1 -1 -0 -0 0 0 0 0 1 1 2 2 3 3 3 3 4 4
-4 -3 -3 -3 -3 -3 -3 -2 -3 -3 -2 -2 -2 -2 -2 -2 -2 -2 -2 -2 -1 -1 -1 -1 -1 -1 -1 -1 -1 -0 -0 -0 -0 0 1 1 1 2 2 2 3 3 3
-4 -4 -4 -4 -4 -3 -3 -3 -3 -3 -3 -3 -3 -3 -3 -3 -2 -2 -2 -2 -2 -2 -2 -2 -2 -2 -1 -1 -1 -1 -1 -1 -0 -0 0 0 1 1 1 2 2 2 2
-5 -5 -4 -4 -4 -4 -4 -4 -4 -4 -4 -4 -3 -3 -3 -3 -3 -3 -3 -3 -3 -3 -2 -2 -2 -2 -2 -2 -2 -2 -1 -1 -1 -1 -1 -0 -0 0 0 1 1 1 2
-5 -5 -5 -5 -5 -5 -5 -5 -4 -4 -4 -4 -4 -4 -4 -4 -4 -4 -4 -3 -3 -3 -3 -3 -3 -3 -3 -3 -2 -2 -2 -2 -2 -2 -1 -1 -1 -0 -0 -0 0 0 1
-6 -6 -6 -6 -6 -5 -5 -5 -5 -5 -5 -5 -5 -5 -4 -4 -4 -4 -4 -4 -4 -4 -4 -4 -3 -3 -3 -3 -3 -3 -2 -2 -2 -2 -2 -1 -1 -1 -1 -1 -1 -0 -0
-7 -7 -6 -6 -6 -6 -6 -6 -6 -6 -5 -5 -5 -5 -5 -5 -5 -5 -5 -5 -5 -4 -4 -4 -4 -4 -4 -4 -3 -3 -3 -3 -3 -2 -2 -2 -2 -2 -1 -1 -1 -1 -1
-7 -7 -7 -7 -7 -7 -7 -6 -6 -6 -6 -6 -6 -6 -5 -5 -5 -5 -5 -5 -5 -5 -5 -5 -5 -4 -4 -4 -4 -4 -4 -3 -3 -3 -3 -3 -2 -2 -2 -2 -2 -2 -2
-8 -8 -8 -8 -7 -7 -7 -7 -7 -6 -6 -6 -6 -6 -6 -6 -6 -6 -6 -6 -6 -5 -5 -5 -5 -5 -5 -5 -5 -5 -4 -4 -4 -4 -3 -3 -3 -3 -3 -3 -3 -3 -3
-9 -8 -8 -8 -8 -8 -8 -7 -7 -7 -7 -7 -7 -7 -7 -7 -6 -7 -7 -7 -6 -6 -6 -6 -6 -6 -5 -6 -6 -5 -5 -5 -5 -4 -4 -4 -4 -3 -3 -3 -3 -3 -3
-9 -9 -9 -9 -9 -9 -8 -8 -8 -8 -8 -7 -7 -7 -7 -7 -7 -7 -7 -7 -7 -7 -6 -6 -6 -6 -6 -6 -6 -6 -5 -5 -5 -5 -5 -5 -4 -4 -4 -4 -4 -4 -4
-10 -9 -9 -9 -9 -9 -9 -8 -8 -8 -8 -8 -8 -8 -8 -8 -8 -7 -7 -7 -7 -7 -7 -7 -7 -6 -6 -6 -6 -6 -6 -6 -6 -5 -5 -5 -5 -5 -4 -4 -4 -4 -4
-10 -10 -10 -10 -9 -9 -9 -9 -9 -9 -9 -9 -9 -9 -8 -8 -8 -8 -8 -8 -8 -7 -7 -7 -7 -7 -7 -7 -7 -7 -7 -6 -6 -6 -6 -6 -5 -5 -5 -5 -5 -5 -5
-11 -11 -10 -10 -10 -10 -10 -10 -10 -10 -10 -10 -10 -10 -9 -9 -9 -9 -9 -8 -8 -8 -8 -8 -7 -7 -7 -7 -7 -7 -7 -7 -7 -7 -7 -6 -6 -6 -6 -6 -6 -5 -5
-11 -11 -11 -11 -11 -11 -11 -11 -11 -11 -11 -10 -10 -10 -10 -10 -9 -9 -9 -9 -9 -8 -8 -8 -8 -8 -8 -8 -8 -8 -8 -8 -8 -7 -7 -7 -7 -7 -6 -6 -6 -6 -6
-12 -12 -12 -12 -12 -12 -11 -11 -11 -11 -11 -11 -11 -11 -10 -10 -10 -10 -10 -9 -9 -9 -9 -8 -8 -8 -8 -9 -9 -8 -8 -8 -8 -8 -8 -8 -8 -7 -7 -7 -7 -7 -7
-12 -12 -12 -12 -12 -12 -12 -12 -11 -11 -11 -11 -11 -11 -11 -11 -11 -10 -10 -10 -10 -9 -9 -9 -9 -9 -9 -9 -9 -9 -9 -9 -9 -9 -9 -8 -8 -8 -8 -8 -8 -8 -7
-13 -13 -13 -13 -13 -13 -13 -13 -12 -12 -12 -11 -11 -11 -11 -11 -11 -11 -11 -10 -10 -10 -10 -10 -10 -10 -10 -10 -10 -10 -9 -9 -9 -9 -9 -9 -9 -9 -8 -8 -8 -8 -8
-13 -13 -13 -13 -13 -13 -13 -13 -13 -13 -13 -12 -12 -12 -12 -12 -11 -11 -11 -11 -11 -11 -11 -11 -11 -11 -10 -10 -10 -10 -10 -10 -10 -10 -10 -10 -9 -9 -9 -9 -9 -9 -8
-13 -13 -13 -13 -13 -13 -13 -13 -13 -13 -13 -13 -13 -12 -12 -12 -12 -12 -12 -12 -12 -12 -12 -12 -11 -11 -11 -11 -11 -11 -11 -10 -10 -10 -10 -10 -10 -10 -10 -10 -9 -9 -9
-14 -14 -14 -14 -14 -14 -14 -14 -14 -14 -14 -13 -13 -13 -13 -13 -13 -12 -12 -12 -12 -12 -12 -12 -12 -12 -12 -11 -11 -11 -11 -11 -11 -11 -11 -11 -10 -10 -10 -10 -10 -10 -10
-14 -14 -14 -14 -14 -14 -14 -14 -14 -14 -14 -14 -14 -14 -13 -13 -13 -13 -13 -13 -13 -12 -12 -12 -12 -12 -12 -12 -12 -12 -12 -11 -11 -11 -11 -11 -11 -11 -11 -11 -11 -11 -10
-14 -14 -14 -14 -15 -15 -15 -15 -15 -15 -15 -14 -14 -14 -14 -14 -14 -13 -13 -13 -13 -13 -13 -13 -13 -12 -12 -12 -12 -12 -12 -12 -12 -12 -12 -11 -11 -11 -11 -11 -11 -11 -11
-15 -15 -15 -15 -15 -15 -15 -15 -15 -15 -15 -15 -15 -15 -14 -14 -14 -14 -14 -14 -13 -13 -13 -13 -13 -13 -13 -13 -13 -13 -12 -12 -12 -12 -12 -12 -12 -12 -12 -12 -12 -12 -11
-15 -15 -15 -15 -15 -15 -15 -15 -15 -15 -15 -15 -15 -15 -15 -15 -14 -14 -14 -14 -14 -14 -14 -13 -13 -13 -13 -13 -13 -13 -13 -13 -13 -13 -12 -12 -12 -12 -12 -12 -12 -12 -12
-15 -15 -15 -15 -15 -15 -16 -16 -16 -16 -15 -15 -15 -15 -15 -15 -15 -15 -15 -14 -14 -14 -14 -14 -14 -14 -13 -13 -13 -13 -13 -13 -13 -13 -13 -12 -12 -12 -12 -12 -12 -12 -12
Wind_Speed
5 4 4 4 4 3 4 4 4 4 4 5 5 5 5 5 4 5 5 5 5 5 5 5 5 5 4 3 3 4 3 3 4 3 2 2 2 2 2 3 4 4 5
6 5 5 5 4 4 4 5 4 5 5 5 5 5 6 5 5 6 6 6 6 6 6 5 6 5 5 4 4 5 4 4 4 5 3 2 3 3 3 3 3 4 4
6 6 6 5 5 5 5 5 5 5 5 4 4 5 6 6 6 6 7 6 6 6 6 6 6 6 6 4 5 5 4 4 3 4 4 2 2 2 2 2 2 2 3
6 6 6 6 5 5 5 5 5 5 5 5 5 5 6 6 6 6 6 6 6 6 6 6 6 6 7 6 5 5 4 4 4 4 4 3 3 3 2 3 2 2 2
6 6 7 7 6 5 5 4 4 5 5 5 5 5 5 5 5 6 6 6 6 6 6 6 6 7 8 7 6 6 5 4 4 4 4 3 3 3 3 3 3 2 2
7 7 7 6 6 5 5 5 4 5 5 5 5 5 5 5 8 9 7 5 5 6 6 5 6 7 8 9 9 9 8 7 6 5 5 5 5 4 3 3 3 2 3
7 7 7 6 6 5 5 5 5 5 5 5 5 5 5 7 9 8 8 5 5 5 5 5 5 6 7 5 7 8 8 9 9 7 6 7 6 6 5 4 4 4 4
7 7 7 6 6 5 5 5 5 4 4 5 5 5 5 6 8 8 8 4 4 5 6 6 6 6 6 6 6 6 6 6 7 6 7 7 7 6 6 5 4 2 2
7 7 7 7 6 6 5 5 5 4 5 4 4 4 5 6 8 8 6 3 4 4 5 5 6 6 8 9 6 6 6 5 6 8 9 9 10 9 7 3 4 4 4
8 8 7 6 6 6 6 5 5 4 5 5 5 4 5 5 7 7 6 3 4 4 4 5 7 8 9 9 6 6 7 6 4 4 5 6 6 7 8 7 6 6 4
8 8 7 6 6 6 5 5 4 4 4 4 4 4 4 5 6 7 6 3 4 4 4 4 5 9 9 9 8 6 8 6 4 4 3 4 4 4 5 6 7 6 5
8 7 7 6 6 5 4 4 4 3 4 4 4 4 3 4 5 7 7 6 5 4 4 4 4 7 8 8 6 6 7 5 3 3 3 4 4 4 3 4 5 5 5
8 8 7 7 6 5 4 4 4 3 3 3 3 3 3 3 4 7 7 6 5 3 3 4 5 5 5 4 5 5 4 3 3 3 4 4 3 3 3 2 2 2 2
8 8 7 6 6 5 4 3 3 3 3 3 3 3 4 3 3 3 3 3 3 3 2 2 3 3 2 2 2 2 1 2 3 3 3 3 2 3 3 3 3 2 2
8 7 7 6 5 5 4 3 3 3 3 3 3 3 3 3 4 5 3 1 1 1 1 1 0 0 0 0 0 1 1 1 2 2 3 3 3 3 3 2 3 3 3
7 7 6 5 5 4 4 5 6 5 7 7 6 5 4 5 6 5 4 3 2 1 1 0 1 1 1 1 1 1 1 1 1 1 2 3 3 3 3 2 2 3 4
7 7 5 5 5 4 4 4 5 6 7 7 8 7 6 6 5 5 4 3 2 1 0 0 0 0 0 1 1 1 1 1 1 1 2 2 2 2 2 3 3 3 4
7 7 7 5 4 4 4 4 4 5 5 5 6 7 7 6 5 5 4 2 2 2 1 1 1 1 1 1 1 1 1 1 1 1 1 2 2 2 2 3 3 4 4
7 5 5 4 4 4 4 4 4 4 4 4 5 5 7 6 6 6 4 2 1 2 2 1 1 1 1 1 1 1 1 1 1 1 1 1 2 2 2 2 3 4 4
6 9 7 5 4 4 4 4 4 4 4 4 4 5 5 4 3 4 3 2 1 2 2 1 1 1 1 1 1 1 1 1 1 1 1 1 1 2 2 3 3 3 3
6 7 9 6 4 4 4 4 4 4 4 4 4 5 6 3 2 3 3 2 2 2 2 2 2 1 1 1 1 2 2 2 2 2 1 1 2 2 2 2 3 3 2
5 5 5 4 4 4 4 4 4 4 4 4 4 5 7 3 2 2 2 2 2 2 2 2 2 2 2 2 2 2 2 2 2 2 2 2 2 2 2 2 2 2 2
5 5 5 4 4 6 5 4 4 4 4 4 4 4 4 3 3 3 3 3 3 3 3 3 2 2 3 3 4 3 3 3 3 3 2 2 2 2 2 2 3 2 3
5 5 5 5 4 4 4 4 4 4 4 4 4 4 3 3 3 3 3 3 3 3 3 3 4 4 5 5 4 4 5 5 4 4 4 3 3 3 2 2 3 3 3
5 5 5 5 4 4 4 4 4 4 5 5 4 4 4 3 3 3 3 3 3 3 4 4 4 5 5 6 6 6 6 6 5 4 3 3 3 3 3 3 3 3 3
4 5 5 4 4 4 4 5 5 5 5 5 4 4 4 4 4 4 3 3 3 4 4 5 6 6 7 7 7 7 7 6 6 5 3 3 3 3 3 3 3 3 3
Wind_Direction
316 301 291 287 279 273 269 268 269 271 270 263 254 251 251 252 249 243 243 239 237 241 235 227 233 231 226 225 221 224 231 229 243 268 277 280 252 235 239 228 234 228 221
315 306 293 288 285 278 276 274 273 271 267 265 263 256 252 248 243 240 242 240 234 236 236 230 233 231 224 224 222 224 221 221 231 253 267 266 257 236 227 225 237 232 225
313 311 300 290 282 279 279 279 276 271 271 270 266 262 260 253 246 242 237 236 235 234 230 228 231 225 225 225 227 226 224 224 221 235 253 260 263 247 231 236 229 224 231
313 309 304 292 281 277 278 278 275 272 269 267 266 262 264 263 254 245 238 235 235 235 231 231 229 226 225 219 226 222 221 220 214 221 235 242 250 243 215 219 235 219 233
312 307 302 299 291 287 284 281 278 275 271 268 266 267 266 264 257 250 242 233 228 231 232 231 232 230 232 226 227 217 212 215 217 221 229 237 234 222 217 213 224 219 249
308 304 305 306 299 292 289 286 283 279 277 271 264 263 264 266 268 263 250 234 227 225 232 236 237 236 237 239 240 235 226 221 218 221 228 229 235 230 218 218 205 207 246
307 305 304 303 300 295 294 292 286 281 278 273 268 263 264 268 273 269 261 242 226 226 228 232 240 238 236 236 242 244 242 238 232 227 228 230 231 222 210 219 212 211 233
310 308 304 298 295 293 290 288 287 282 276 273 273 266 270 274 279 272 266 248 229 228 227 226 233 237 235 232 232 237 240 241 234 227 227 235 235 219 216 218 216 218 256
314 310 307 301 293 291 286 283 283 284 279 277 278 275 273 278 277 272 265 240 237 239 238 232 233 236 241 238 230 229 238 249 248 240 238 239 242 240 224 193 194 203 236
312 308 305 300 292 286 284 285 287 283 279 277 278 274 268 273 276 272 266 237 235 243 247 241 241 242 245 241 226 223 231 237 233 242 239 240 241 240 232 214 206 209 217
312 314 313 305 295 287 287 287 285 281 282 277 275 276 271 277 285 276 271 248 234 232 239 242 244 247 250 251 243 232 234 232 224 223 227 227 226 223 221 219 213 210 219
321 323 320 312 304 305 297 296 291 280 278 282 283 288 284 283 291 285 277 266 252 235 237 239 238 245 250 255 253 242 239 234 218 216 227 231 224 218 221 218 219 219 226
328 326 322 321 319 315 305 303 305 299 292 295 291 293 297 295 293 293 286 273 253 244 246 243 241 243 249 254 258 253 242 226 208 218 229 233 230 216 201 203 206 203 231
327 326 325 325 327 328 322 317 312 303 297 298 300 302 303 302 303 302 293 283 263 248 245 253 266 270 267 259 258 269 247 218 216 222 228 235 229 214 211 201 207 206 237
328 328 330 330 326 326 324 312 307 299 297 299 294 291 303 307 307 314 320 292 272 254 179 147 108 46 8 278 282 272 255 247 242 225 219 224 227 220 223 211 211 223 225
332 333 332 331 330 329 328 328 328 325 323 321 320 314 306 308 312 315 324 332 344 355 127 148 202 218 236 252 263 272 271 258 248 230 225 221 222 220 225 228 224 219 226
327 326 325 328 329 330 331 331 329 330 329 332 329 323 322 326 328 330 331 339 353 6 70 339 294 281 287 283 273 268 282 292 278 238 235 232 223 221 221 224 223 225 232
328 328 329 325 325 325 325 324 322 324 327 329 330 331 333 335 338 344 348 4 3 4 16 18 357 341 324 304 300 305 306 314 301 266 246 234 223 221 225 226 226 226 231
328 325 324 324 327 326 324 322 320 319 318 321 329 336 341 341 345 353 357 1 344 347 354 358 354 337 316 296 293 295 297 301 303 287 260 248 231 225 231 234 235 243 242
327 330 334 333 332 330 328 324 322 321 320 323 326 326 330 343 351 349 351 352 352 342 338 331 326 321 314 297 282 279 281 281 288 289 277 267 249 232 235 240 239 240 244
325 329 336 336 334 331 331 329 324 323 325 326 321 319 332 341 337 333 334 336 330 319 315 315 314 311 309 310 300 283 274 280 276 271 273 269 259 251 248 244 242 245 244
323 325 329 327 327 328 329 329 329 328 326 323 321 323 333 340 331 321 318 315 318 316 304 303 301 298 285 284 288 290 282 273 271 265 262 260 258 257 252 247 245 242 240
325 324 323 323 323 326 332 330 326 323 321 321 319 320 322 320 317 315 313 315 316 312 311 304 296 295 295 293 281 266 266 266 267 252 243 247 250 252 250 247 242 239 239
323 322 321 322 323 323 322 322 320 318 317 316 315 313 312 309 307 306 308 309 307 302 303 298 289 288 294 298 295 284 273 266 259 247 232 229 240 248 245 245 247 242 238
326 322 318 317 317 317 317 316 315 315 314 313 312 313 311 309 307 306 305 305 302 298 296 295 292 292 292 291 289 287 286 286 278 261 236 228 236 238 239 237 238 240 238
321 321 319 316 313 311 310 310 311 312 311 310 311 311 309 306 303 303 302 303 304 302 299 297 294 293 292 291 289 292 294 289 284 279 260 232 233 241 240 240 240 238 235
Height
1469 1468 1467 1466 1466 1466 1466 1465 1465 1465 1465 1465 1466 1466 1467 1468 1468 1469 1469 1470 1471 1472 1473 1474 1476 1478 1480 1481 1483 1485 1486 1488 1487 1487 1489 1490 1492 1494 1496 1498 1500 1502 1503
1465 1464 1463 1463 1462 1461 1461 1461 1461 1461 1461 1461 1461 1461 1461 1462 1463 1464 1464 1465 1466 1467 1468 1469 1471 1473 1474 1476 1478 1479 1481 1482 1483 1483 1484 1486 1488 1489 1491 1493 1495 1497 1498
1462 1460 1459 1458 1458 1457 1457 1457 1456 1456 1456 1456 1456 1456 1457 1457 1457 1458 1459 1460 1461 1462 1463 1464 1466 1468 1469 1470 1472 1474 1475 1477 1478 1479 1479 1481 1483 1484 1486 1487 1489 1491 1493
1458 1456 1455 1454 1453 1453 1452 1452 1452 1452 1451 1451 1451 1451 1452 1452 1452 1453 1454 1454 1455 1456 1458 1459 1461 1462 1464 1465 1467 1468 1470 1472 1473 1474 1475 1476 1477 1479 1480 1481 1483 1485 1487
1454 1452 1451 1450 1449 1449 1448 1448 1447 1447 1447 1447 1447 1446 1446 1446 1447 1447 1448 1449 1450 1451 1452 1454 1455 1457 1458 1460 1462 1463 1464 1466 1468 1469 1469 1470 1472 1473 1475 1476 1477 1479 1481
1450 1448 1447 1446 1445 1444 1444 1443 1443 1443 1442 1442 1441 1441 1441 1441 1442 1442 1443 1444 1444 1446 1447 1448 1450 1451 1453 1455 1456 1458 1459 1461 1462 1463 1464 1465 1466 1468 1469 1471 1472 1473 1475
1446 1444 1443 1442 1441 1440 1439 1439 1438 1438 1437 1437 1436 1436 1436 1436 1437 1437 1438 1438 1439 1440 1441 1443 1444 1446 1448 1449 1450 1452 1453 1455 1457 1458 1459 1459 1461 1463 1464 1466 1467 1468 1469
1442 1440 1439 1437 1436 1435 1435 1434 1434 1433 1433 1432 1432 1431 1431 1431 1432 1432 1433 1433 1434 1435 1437 1438 1439 1441 1442 1444 1445 1446 1447 1449 1450 1452 1453 1454 1456 1458 1459 1461 1462 1463 1464
1439 1437 1435 1433 1432 1431 1430 1429 1429 1429 1428 1427 1427 1427 1426 1427 1427 1428 1428 1429 1429 1431 1432 1433 1434 1435 1437 1438 1440 1440 1442 1443 1444 1446 1447 1448 1450 1452 1454 1455 1456 1458 1458
1435 1433 1431 1430 1428 1427 1426 1425 1425 1424 1424 1423 1423 1422 1422 1422 1423 1424 1424 1424 1425 1426 1427 1428 1429 1430 1432 1433 1434 1435 1436 1437 1438 1440 1441 1442 1444 1445 1447 1449 1451 1452 1453
1432 1430 1428 1426 1425 1423 1422 1421 1421 1420 1420 1419 1419 1418 1418 1418 1418 1419 1420 1420 1420 1421 1422 1422 1424 1425 1427 1428 1429 1430 1430 1432 1433 1434 1434 1436 1437 1439 1441 1443 1445 1446 1447
1429 1427 1425 1423 1421 1419 1418 1417 1417 1416 1415 1415 1414 1414 1414 1414 1414 1415 1415 1416 1416 1417 1417 1418 1419 1420 1422 1423 1424 1425 1426 1427 1427 1428 1429 1430 1431 1433 1435 1437 1439 1440 1442
1427 1424 1422 1420 1418 1416 1415 1414 1413 1413 1412 1411 1411 1410 1410 1410 1410 1411 1411 1411 1412 1413 1413 1414 1415 1416 1417 1418 1419 1420 1421 1421 1422 1423 1423 1424 1426 1427 1429 1431 1433 1434 1435
1424 1422 1419 1417 1415 1413 1412 1411 1410 1409 1409 1408 1408 1407 1407 1407 1406 1407 1407 1407 1408 1409 1409 1410 1411 1412 1412 1413 1414 1415 1415 1416 1417 1418 1418 1419 1420 1422 1424 1425 1427 1428 1429
1423 1420 1418 1415 1413 1411 1410 1409 1408 1407 1407 1407 1406 1405 1405 1404 1404 1404 1404 1404 1404 1405 1406 1406 1406 1407 1407 1408 1409 1410 1411 1411 1412 1413 1413 1414 1415 1417 1418 1420 1421 1423 1423
1421 1419 1416 1414 1412 1410 1408 1407 1406 1406 1405 1404 1404 1403 1403 1403 1402 1402 1402 1402 1402 1402 1402 1402 1402 1403 1403 1404 1405 1405 1406 1407 1407 1408 1409 1409 1410 1412 1413 1415 1416 1417 1418
1420 1418 1415 1413 1411 1409 1407 1406 1404 1404 1403 1402 1401 1401 1400 1400 1400 1399 1399 1399 1399 1399 1399 1399 1399 1399 1400 1401 1401 1402 1402 1403 1404 1404 1405 1405 1406 1407 1408 1409 1410 1412 1413
1420 1417 1415 1412 1410 1408 1407 1405 1403 1402 1400 1399 1399 1398 1398 1398 1397 1397 1397 1396 1396 1396 1395 1396 1396 1396 1397 1397 1398 1399 1399 1400 1400 1400 1401 1401 1402 1403 1403 1404 1405 1406 1407
1419 1416 1414 1412 1410 1408 1406 1404 1402 1401 1399 1398 1397 1396 1396 1395 1395 1394 1394 1393 1393 1393 1393 1393 1394 1394 1394 1395 1395 1396 1396 1396 1396 1397 1397 1397 1398 1399 1399 1400 1400 1401 1402
1418 1415 1413 1411 1408 1406 1404 1403 1401 1399 1398 1396 1395 1394 1393 1393 1392 1392 1391 1391 1391 1391 1391 1391 1392 1392 1392 1392 1392 1393 1393 1393 1393 1394 1394 1394 1395 1395 1395 1395 1396 1396 1397
1416 1414 1412 1409 1407 1405 1403 1401 1400 1398 1396 1395 1394 1393 1392 1391 1390 1390 1389 1389 1389 1389 1389 1390 1390 1390 1390 1390 1390 1390 1390 1390 1390 1390 1391 1391 1391 1391 1391 1392 1392 1392 1392
1415 1413 1410 1408 1406 1404 1402 1400 1398 1397 1395 1393 1392 1391 1390 1389 1388 1388 1387 1387 1387 1387 1388 1388 1388 1388 1387 1387 1387 1387 1387 1387 1387 1387 1388 1388 1388 1388 1388 1388 1388 1388 1388
1414 1411 1409 1406 1404 1402 1400 1399 1397 1395 1393 1392 1390 1389 1388 1387 1386 1386 1385 1385 1385 1385 1385 1385 1385 1385 1385 1385 1385 1385 1384 1384 1385 1385 1385 1385 1385 1385 1385 1384 1384 1384 1384
1412 1410 1407 1405 1403 1401 1399 1397 1395 1393 1392 1390 1389 1387 1386 1385 1384 1384 1383 1383 1383 1382 1382 1382 1382 1382 1382 1382 1382 1382 1382 1382 1382 1382 1382 1381 1381 1381 1381 1381 1381 1381 1381
1411 1408 1405 1403 1401 1399 1397 1395 1393 1392 1390 1389 1387 1386 1384 1383 1382 1382 1381 1381 1380 1380 1380 1380 1380 1379 1379 1379 1379 1379 1379 1379 1379 1379 1378 1378 1378 1377 1377 1377 1377 1377 1377
1409 1406 1404 1401 1399 1397 1395 1393 1391 1390 1388 1387 1385 1384 1382 1381 1380 1379 1379 1378 1378 1377 1377 1377 1377 1377 1376 1376 1376 1376 1376 1376 1375 1375 1375 1374 1374 1374 1374 1374 1374 1373 1374